Tracking 34403 objects as of 12-Jun-2026
HD Live streaming from Space Station
objects crossing your sky now

ONEWEB-0561

Track ONEWEB-0561 now!
10-day predictions
ONEWEB-0561 is classified as:


NORAD ID: 56710
Int'l Code: 2023-068A
Perigee: 1,187.6 km
Apogee: 1,190.3 km
Inclination: 87.9 °
Period: 109.0 minutes
Semi major axis: 7559 km
RCS: Unknown
Launch date: May 20, 2023
Source: United Kingdom (UK)
Launch site: AIR FORCE WESTERN TEST RANGE (AFWTR)
Your satellite tracking list
Your tracking list is empty




NASA's NSSDC Master Catalog

Two Line Element Set (TLE):
1 56710U 23068A   26163.27349284  .00000105  00000-0  22571-3 0  9991
2 56710  87.9193 275.4224 0001791  89.5886 270.5453 13.20771049148852
Source of the keplerian elements: AFSPC